New Orleans Lakefront, LA

9:45 AM CST on November 21, 2019 (GMT -0600)
Lakefront

Weather History for KNEW - September, 2019

Change the Weather History Date:

Sunday, September 1, 2019

  Actual Average Record
Temperature  
Mean Temperature 87 °F 82 °F  
Max Temperature 91 °F 90 °F 98 °F (2016)
Min Temperature 82 °F 75 °F 62 °F (1968)
Degree Days  
Heating Degree Days 0 0  
Month to date heating degree days 0 0  
Since 1 July heating degree days 0 0  
Cooling Degree Days 22 17  
Month to date cooling degree days 22 17  
Year to date cooling degree days 2663 2263  
Growing Degree Days 34 (Base 50)    
Moisture  
Dew Point 76 °F    
Average Humidity 74    
Maximum Humidity 88    
Minimum Humidity 59    
Precipitation  
Precipitation T in 0.20 in 2.40 in (2008)
Month to date precipitation T 0.20  
Year to date precipitation 46.76 44.41  
Snow  
Snow 0.00 in - - ()
Month to date snowfall 0.0  
Since 1 July snowfall 0.0  
Since 1 September snowfall 0.0  
Snow Depth 0.00 in    
Sea Level Pressure  
Sea Level Pressure 29.98 in    
Wind  
Wind Speed 7 mph (ENE)    
Max Wind Speed 17 mph    
Max Gust Speed 23 mph    
Visibility 10 miles    
Events Thunderstorm    
T = Trace of Precipitation, MM = Missing Value Source: NWS Daily Summary

Daily Weather History Graph

Daily Weather History Graph

Search for Another Location

Airport or City:

Astronomy

Sep. 01, 2019 Rise Set
Actual Time 6:37 AM CDT 7:22 PM CDT
Civil Twilight 6:12 AM CDT 7:47 PM CDT
Nautical Twilight 5:43 AM CDT 8:15 PM CDT
Astronomical Twilight 5:14 AM CDT 8:45 PM CDT
Moon 8:58 AM CDT (9/1) 9:21 PM CDT (9/1)
Length of Visible Light 13h 34m
Length of Day
12h 45m
Waxing Crescent, 8% of the Moon is Illuminated
Sep 1
Waxing Crescent
Sep 5
First Quarter
Sep 13
Full
Sep 21
Last Quarter
Sep 28
New

Hourly Weather History & Observations

Time (CDT) Temp. Heat Index Dew Point Humidity Pressure Visibility Wind Dir Wind Speed Gust Speed Precip Events Conditions
12:53 AM 82.9 °F 91.8 °F 77.0 °F 82% 29.98 in 10.0 mi East 8.1 mph - N/A   Mostly Cloudy
1:53 AM 82.9 °F 90.8 °F 75.9 °F 79% 29.97 in 10.0 mi ESE 6.9 mph - N/A   Clear
2:53 AM 82.9 °F 91.8 °F 77.0 °F 82% 29.96 in 10.0 mi East 9.2 mph - N/A   Clear
3:53 AM 82.0 °F 90.2 °F 77.0 °F 85% 29.96 in 10.0 mi ENE 11.5 mph - N/A   Partly Cloudy
4:53 AM 82.0 °F 90.2 °F 77.0 °F 85% 29.95 in 10.0 mi ENE 9.2 mph - N/A   Clear
5:53 AM 82.0 °F 90.2 °F 77.0 °F 85% 29.96 in 10.0 mi ENE 11.5 mph - N/A   Partly Cloudy
6:53 AM 82.0 °F 89.4 °F 75.9 °F 82% 29.97 in 10.0 mi ENE 15.0 mph - N/A   Clear
7:53 AM 81.0 °F 87.3 °F 75.9 °F 85% 29.99 in 10.0 mi ENE 11.5 mph - N/A   Clear
8:53 AM 82.9 °F 90.2 °F 75.0 °F 77% 30.00 in 10.0 mi ENE 10.4 mph - N/A   Clear
9:53 AM 82.0 °F 88.6 °F 75.0 °F 79% 30.03 in 10.0 mi NE 10.4 mph - N/A   Partly Cloudy
10:53 AM 86.0 °F 96.0 °F 75.9 °F 72% 30.02 in 10.0 mi ENE 11.5 mph - N/A   Clear
11:53 AM 86.0 °F 96.9 °F 77.0 °F 74% 30.01 in 10.0 mi NE 13.8 mph - N/A   Clear
12:53 PM 87.1 °F 97.3 °F 75.9 °F 69% 30.01 in 10.0 mi NE 10.4 mph - N/A   Clear
1:53 PM 87.1 °F 97.3 °F 75.9 °F 69% 29.99 in 10.0 mi East 10.4 mph - N/A   Partly Cloudy
2:00 PM 87.1 °F 97.3 °F 75.9 °F 69% 30.01 in 10.0 mi East 10.4 mph - N/A   Scattered Clouds
2:53 PM 84.9 °F 93.3 °F 75.0 °F 72% 29.99 in 10.0 mi East 9.2 mph - N/A   Scattered Clouds
3:29 PM 86.0 °F 96.0 °F 75.9 °F 72% 30.00 in 10.0 mi East 6.9 mph - N/A Thunderstorm Scattered Clouds
3:44 PM 86.0 °F 95.1 °F 75.0 °F 70% 29.98 in 10.0 mi ESE 6.9 mph - N/A   Scattered Clouds
3:53 PM 86.0 °F 96.0 °F 75.9 °F 72% 29.96 in 10.0 mi East 5.8 mph - N/A   Partly Cloudy
4:53 PM 84.9 °F 94.1 °F 75.9 °F 74% 29.95 in 10.0 mi NE 8.1 mph - N/A   Partly Cloudy
5:53 PM 84.9 °F 94.1 °F 75.9 °F 74% 29.95 in 10.0 mi ENE 6.9 mph - N/A   Clear
6:53 PM 84.9 °F 94.1 °F 75.9 °F 74% 29.95 in 10.0 mi NE 9.2 mph - N/A   Clear
7:53 PM 84.9 °F 93.3 °F 75.0 °F 72% 29.96 in 10.0 mi ENE 9.2 mph - N/A   Clear
8:53 PM 82.0 °F 87.9 °F 73.9 °F 76% 29.96 in 10.0 mi East 5.8 mph - N/A   Scattered Clouds
9:53 PM 84.0 °F 93.7 °F 77.0 °F 79% 29.98 in 10.0 mi ENE 10.4 mph - N/A   Clear
10:53 PM 82.9 °F 90.8 °F 75.9 °F 79% 29.97 in 10.0 mi ENE 12.7 mph - N/A   Clear
11:53 PM 82.9 °F 90.8 °F 75.9 °F 79% 29.96 in 10.0 mi ENE 12.7 mph - N/A   Clear